sat.trackr.live / text

‹ back to catalog

STARLINK-34976

NORAD 65209 · 2025-176M

PAYLOAD ACTIVE UNKNOWN

§ Identity

Operator
Country
US
Launch date
2025-08-14
Launch site
AFETR
Launch vehicle
Mass (kg)
RCS (m²)

Purposes: comms

External: N2YO · Heavens-Above · Gunter

§ Orbital elements

Epoch: 2026-05-25T00:14:07.373184Z

Period
93.85 min
Inclination
53.1574°
Eccentricity
0.0001384
Mean motion
15.34404635 rev/d
Perigee alt
461.7 km
Apogee alt
463.6 km
Semi-major
6,840.8 km
B*
5.6128e-4
RAAN
157.6445°
Arg perigee
86.8702°
Mean anomaly
273.2459°
Rev number
4,481

§ Raw data

STARLINK-349761 65209U 25176M   26145.00980756  .00018637  00000+0  56128-3 0  99952 65209  53.1574 157.6445 0001384  86.8702 273.2459 15.34404635 44812

JSON: /api/v1/satellites/65209 · /tle

For live sub-satellite position, see the globe view (requires WebGL).

§ Visibility from observer

Set your observer location to see the next 7 days of passes ≥ 10°. The values pass through the URL so the page stays shareable.

No JS? Fill the form by hand. The geolocation button needs JavaScript.